Location: Unspecified
(47.9110°N, 14.3980°E)
Time: 16:34:50
(UTC+00:00)

SL-27 R/B - Pass Details

Date: 06 August 2020
Orbit: 419 x 471 km, 74.7° (Epoch: 18 September)

Event Time Altitude Azimuth Distance (km) Brightness Sun altitude
Exits shadow 22:33:55 31° 332° (NNW) 769 4.1 -25.3°
Drops below altitude 10° 22:36:12 10° 6° (N) 1,517 6.0 -25.3°
Sets 22:38:21 0° 15° (NNE) 2,384 7.1 -25.4°
